Total_Precipitation_Accumulation
0.06 0.14 0.21 0.22 0.20 0.17 0.13 0.11 0.22 0.26 0.33 0.39 0.48 0.40 0.32 0.30 0.26 0.29 0.34 0.30 0.24 0.26 0.34 0.37 0.40 0.37 0.38 0.43 0.46 0.61 0.97 1.17 1.13 1.07 1.04 1.00 0.97 1.03 1.08 1.15 1.21 1.39 1.55 1.68
0.10 0.13 0.15 0.16 0.19 0.16 0.11 0.09 0.09 0.15 0.27 0.30 0.40 0.40 0.37 0.33 0.28 0.34 0.38 0.33 0.29 0.26 0.35 0.41 0.44 0.45 0.44 0.45 0.48 0.59 0.84 1.04 1.05 0.99 0.93 0.88 0.91 1.02 1.19 1.28 1.39 1.53 1.58 1.56
0.15 0.18 0.17 0.24 0.20 0.16 0.14 0.12 0.13 0.21 0.31 0.30 0.35 0.41 0.43 0.46 0.43 0.37 0.40 0.35 0.28 0.29 0.38 0.52 0.50 0.52 0.55 0.51 0.50 0.63 0.83 0.99 1.07 1.04 1.05 1.01 0.99 1.15 1.35 1.45 1.53 1.58 1.57 1.52
0.21 0.25 0.35 0.26 0.20 0.21 0.23 0.25 0.26 0.28 0.31 0.34 0.41 0.42 0.50 0.58 0.53 0.42 0.43 0.43 0.41 0.38 0.43 0.53 0.52 0.55 0.59 0.58 0.60 0.72 0.89 1.05 1.11 1.08 1.14 1.22 1.23 1.32 1.52 1.70 1.73 1.70 1.68 1.60
0.30 0.33 0.39 0.36 0.28 0.33 0.36 0.40 0.41 0.44 0.38 0.43 0.44 0.48 0.58 0.54 0.52 0.54 0.54 0.53 0.57 0.59 0.55 0.58 0.60 0.62 0.63 0.67 0.73 0.84 0.91 1.05 1.15 1.23 1.35 1.39 1.43 1.58 1.77 1.90 1.84 1.80 1.82 1.80
0.43 0.50 0.55 0.55 0.40 0.35 0.41 0.68 0.53 0.54 0.54 0.48 0.50 0.70 0.73 0.57 0.52 0.51 0.51 0.56 0.58 0.64 0.67 0.70 0.71 0.74 0.80 0.86 0.98 1.13 1.21 1.28 1.46 1.66 1.84 1.92 1.96 2.02 2.04 2.10 1.99 1.94 1.88 1.84
0.63 0.73 0.66 0.51 0.45 0.40 0.75 1.04 0.77 0.75 0.72 0.63 0.73 0.80 0.75 0.61 0.51 0.50 0.49 0.52 0.58 0.61 0.68 0.71 0.74 0.89 1.05 1.12 1.23 1.36 1.48 1.55 1.76 2.09 2.26 2.22 2.21 2.17 2.12 2.14 2.13 2.10 2.02 1.98
0.83 1.03 1.05 0.59 0.56 0.83 1.04 0.89 0.91 0.93 0.90 0.83 0.82 0.85 0.81 0.74 0.57 0.48 0.48 0.50 0.55 0.59 0.62 0.72 0.84 1.06 1.32 1.41 1.39 1.47 1.65 1.85 2.07 2.32 2.29 2.18 2.33 2.27 2.25 2.31 2.29 2.19 2.14 2.07
1.04 1.20 1.01 0.71 0.83 1.01 0.98 0.94 0.94 0.94 0.90 0.81 0.75 0.87 0.81 0.70 0.64 0.50 0.46 0.51 0.56 0.61 0.70 0.79 0.96 1.28 1.55 1.62 1.66 1.69 1.82 1.98 2.09 2.20 2.38 2.50 2.54 2.46 2.39 2.36 2.32 2.17 2.08 1.98
1.17 1.26 1.08 0.92 0.92 0.91 0.95 0.94 0.88 0.81 0.78 0.79 0.74 0.72 0.69 0.61 0.56 0.52 0.51 0.52 0.59 0.66 0.80 0.98 1.14 1.40 1.54 1.59 1.62 1.65 1.67 1.70 1.82 2.01 2.15 2.23 2.45 2.53 2.46 2.33 2.27 2.22 2.11 1.98
1.39 1.49 1.33 1.20 1.04 0.92 0.94 0.89 0.88 0.86 0.81 0.77 0.71 0.65 0.56 0.51 0.50 0.50 0.48 0.53 0.63 0.72 0.82 0.95 1.12 1.29 1.33 1.44 1.52 1.62 1.61 1.58 1.61 1.65 1.78 1.87 1.99 2.12 2.13 2.15 1.98 1.88 1.76 1.70
1.44 1.31 1.23 1.35 1.17 1.01 0.95 0.96 1.02 1.09 1.08 0.92 0.77 0.70 0.63 0.56 0.51 0.46 0.45 0.52 0.62 0.74 0.84 0.94 1.08 1.26 1.32 1.41 1.49 1.55 1.54 1.49 1.50 1.52 1.61 1.69 1.74 1.70 1.55 1.50 1.34 1.21 1.17 1.13
1.01 1.03 1.08 1.18 1.13 1.10 1.13 1.19 1.26 1.24 1.10 0.87 0.72 0.66 0.60 0.53 0.48 0.46 0.48 0.56 0.68 0.76 0.84 0.91 0.98 1.14 1.31 1.46 1.57 1.65 1.57 1.44 1.35 1.30 1.36 1.41 1.51 1.64 1.71 1.50 1.28 1.10 0.98 0.86
0.91 1.03 1.18 1.22 1.23 1.14 1.15 1.26 1.26 1.09 0.98 0.84 0.68 0.59 0.54 0.46 0.39 0.36 0.39 0.47 0.56 0.66 0.72 0.78 0.87 0.99 1.15 1.32 1.42 1.48 1.47 1.36 1.27 1.26 1.30 1.35 1.43 1.55 1.68 1.67 1.43 1.10 0.95 0.83
0.95 1.00 1.11 1.11 1.13 1.18 1.19 1.19 1.21 1.11 0.97 0.92 0.82 0.71 0.61 0.54 0.49 0.47 0.46 0.51 0.61 0.69 0.72 0.77 0.89 0.97 1.12 1.29 1.36 1.33 1.27 1.20 1.14 1.19 1.23 1.22 1.28 1.35 1.42 1.46 1.37 1.20 1.00 0.81
1.08 0.98 1.05 1.08 1.03 1.04 1.01 0.96 0.97 0.93 0.83 0.79 0.73 0.67 0.62 0.57 0.53 0.51 0.55 0.68 0.87 0.90 0.86 0.87 0.90 0.93 1.10 1.29 1.33 1.28 1.18 1.02 0.94 0.99 1.04 1.06 1.12 1.18 1.20 1.26 1.24 1.17 1.05 0.80
1.12 1.10 1.06 1.01 0.97 0.94 0.83 0.73 0.72 0.71 0.72 0.73 0.65 0.55 0.49 0.46 0.49 0.54 0.63 0.71 0.79 0.80 0.81 0.88 0.86 0.84 1.00 1.18 1.27 1.23 1.12 0.96 0.74 0.69 0.77 0.84 0.94 1.03 1.06 1.07 1.10 1.08 0.93 0.67
0.89 0.89 0.89 0.86 0.85 0.81 0.76 0.66 0.59 0.56 0.56 0.58 0.56 0.51 0.47 0.50 0.62 0.74 0.81 0.83 0.79 0.70 0.67 0.71 0.69 0.72 0.86 0.93 1.00 1.07 1.00 0.91 0.76 0.68 0.70 0.74 0.82 0.92 0.93 0.90 0.90 0.88 0.78 0.59
0.74 0.70 0.71 0.70 0.64 0.57 0.57 0.55 0.53 0.49 0.45 0.47 0.49 0.51 0.54 0.62 0.74 0.85 0.91 1.01 1.03 0.91 0.73 0.64 0.60 0.63 0.76 0.78 0.81 0.93 0.93 0.85 0.74 0.67 0.70 0.68 0.72 0.81 0.81 0.77 0.75 0.70 0.64 0.56
0.72 0.67 0.69 0.66 0.57 0.51 0.47 0.44 0.43 0.41 0.42 0.44 0.48 0.56 0.64 0.74 0.87 0.97 1.04 1.07 1.09 1.03 0.83 0.67 0.61 0.61 0.65 0.70 0.76 0.80 0.83 0.79 0.68 0.63 0.65 0.70 0.70 0.71 0.67 0.64 0.62 0.58 0.54 0.53
0.72 0.73 0.71 0.65 0.58 0.50 0.43 0.40 0.38 0.42 0.46 0.49 0.56 0.64 0.77 0.89 0.96 1.07 1.26 1.26 1.03 0.89 0.76 0.65 0.59 0.57 0.59 0.66 0.71 0.75 0.80 0.81 0.71 0.61 0.60 0.63 0.64 0.65 0.63 0.61 0.57 0.51 0.50 0.51
0.64 0.67 0.60 0.53 0.50 0.49 0.43 0.37 0.39 0.47 0.59 0.63 0.62 0.67 0.81 0.92 1.03 1.13 1.19 1.32 1.18 1.01 0.76 0.60 0.53 0.49 0.49 0.56 0.60 0.69 0.72 0.75 0.69 0.60 0.56 0.57 0.58 0.65 0.67 0.61 0.55 0.48 0.48 0.50
0.52 0.53 0.51 0.45 0.42 0.43 0.43 0.39 0.40 0.51 0.66 0.73 0.74 0.78 0.90 0.94 1.05 1.34 1.40 1.23 1.15 1.02 0.72 0.56 0.53 0.45 0.40 0.43 0.52 0.60 0.63 0.64 0.63 0.53 0.47 0.46 0.49 0.56 0.61 0.59 0.56 0.49 0.48 0.46
0.48 0.43 0.45 0.43 0.37 0.39 0.41 0.42 0.44 0.52 0.58 0.62 0.62 0.68 0.83 0.90 0.91 0.96 1.15 1.26 1.19 1.02 0.75 0.61 0.52 0.42 0.37 0.36 0.49 0.60 0.63 0.62 0.60 0.49 0.40 0.39 0.44 0.53 0.56 0.55 0.54 0.49 0.46 0.45
0.49 0.43 0.40 0.39 0.42 0.48 0.52 0.56 0.62 0.64 0.64 0.64 0.56 0.53 0.62 0.77 0.88 0.84 0.87 0.99 1.10 0.98 0.81 0.68 0.57 0.51 0.41 0.39 0.48 0.58 0.62 0.61 0.54 0.47 0.44 0.48 0.53 0.57 0.54 0.52 0.51 0.48 0.48 0.47
0.53 0.47 0.43 0.39 0.40 0.48 0.59 0.72 0.87 0.88 0.87 0.86 0.71 0.55 0.55 0.61 0.66 0.70 0.77 0.82 0.88 0.88 0.81 0.75 0.65 0.58 0.52 0.50 0.53 0.59 0.65 0.67 0.59 0.53 0.55 0.61 0.61 0.59 0.58 0.53 0.47 0.46 0.45 0.43
0.52 0.46 0.42 0.43 0.48 0.54 0.66 0.80 0.96 1.00 0.98 0.99 0.85 0.63 0.54 0.55 0.56 0.61 0.68 0.76 0.78 0.79 0.78 0.74 0.67 0.59 0.53 0.53 0.55 0.57 0.62 0.65 0.62 0.60 0.59 0.60 0.61 0.61 0.58 0.53 0.49 0.48 0.47 0.44